KAC6767 OKKK-OBBI

Flight info

Callsign KAC6767
Flight time N/A
Altitude 27000
Route BOXIK B416 IMDOX P975 LONOS L703 KOBOK
Aircraft A321/M-SDE3FGHIRWY/LB1

Departure

Time N/A
Airport Kuwait International Airport (OKKK)

Arrival

Time 2026-04-28 08:18
Airport Bahrain International Airport (OBBI)
Time Latitude Longitude Altitude Speed Heading
2026-04-28 07:36 27.45814 50.17658 26949 ft 441 kts 150°
2026-04-28 07:36 27.43193 50.19680 26690 ft 456 kts 149°
2026-04-28 07:36 27.40604 50.21750 26439 ft 460 kts 148°
2026-04-28 07:36 27.38006 50.23862 26187 ft 460 kts 147°
2026-04-28 07:37 27.35800 50.25662 25973 ft 458 kts 147°
2026-04-28 07:37 27.33124 50.27842 25713 ft 457 kts 147°
2026-04-28 07:37 27.30465 50.29999 25444 ft 457 kts 147°
2026-04-28 07:37 27.27897 50.32076 25122 ft 458 kts 147°
2026-04-28 07:38 27.25320 50.34157 24642 ft 455 kts 147°
2026-04-28 07:38 27.22799 50.36189 24099 ft 454 kts 146°
2026-04-28 07:38 27.20451 50.38080 23566 ft 453 kts 146°
2026-04-28 07:38 27.17812 50.40207 22949 ft 452 kts 145°
2026-04-28 07:39 27.15620 50.41975 22424 ft 451 kts 145°
2026-04-28 07:39 27.13199 50.43927 21841 ft 450 kts 144°
2026-04-28 07:39 27.10763 50.45892 21260 ft 449 kts 144°
2026-04-28 07:39 27.08229 50.47935 20638 ft 448 kts 144°
2026-04-28 07:40 27.05847 50.49852 20052 ft 442 kts 143°
2026-04-28 07:40 27.03358 50.51855 19433 ft 432 kts 143°
2026-04-28 07:40 27.00974 50.53774 18842 ft 423 kts 143°
2026-04-28 07:40 26.98530 50.55444 18235 ft 416 kts 155°
2026-04-28 07:41 26.95859 50.56406 17679 ft 406 kts 170°
2026-04-28 07:41 26.93138 50.56702 17210 ft 395 kts 178°
2026-04-28 07:41 26.90585 50.56797 16800 ft 385 kts 179°
2026-04-28 07:41 26.88141 50.56863 16412 ft 379 kts 179°
2026-04-28 07:42 26.85612 50.56940 16008 ft 377 kts 179°
2026-04-28 07:42 26.83681 50.57008 15695 ft 376 kts 178°
2026-04-28 07:42 26.81983 50.57074 15420 ft 374 kts 178°
2026-04-28 07:42 26.79384 50.57182 14990 ft 372 kts 178°
2026-04-28 07:43 26.76881 50.57292 14578 ft 371 kts 178°
2026-04-28 07:43 26.74272 50.57410 14145 ft 368 kts 178°
2026-04-28 07:43 26.72069 50.57510 13777 ft 367 kts 177°
2026-04-28 07:43 26.70162 50.57597 13458 ft 365 kts 177°
2026-04-28 07:44 26.67522 50.57719 13009 ft 363 kts 177°
2026-04-28 07:44 26.65023 50.57834 12592 ft 361 kts 177°
2026-04-28 07:44 26.63074 50.57925 12264 ft 359 kts 177°
2026-04-28 07:44 26.60666 50.58036 11854 ft 357 kts 177°
2026-04-28 07:45 26.58525 50.58135 11484 ft 355 kts 177°
2026-04-28 07:45 26.56181 50.58242 11075 ft 354 kts 177°
2026-04-28 07:45 26.53902 50.58350 10670 ft 352 kts 175°
2026-04-28 07:45 26.51661 50.58909 10352 ft 345 kts 154°
2026-04-28 07:46 26.49736 50.60415 10285 ft 328 kts 131°
2026-04-28 07:46 26.48661 50.62161 10216 ft 315 kts 112°
2026-04-28 07:46 26.48079 50.64759 10109 ft 299 kts 92°
2026-04-28 07:46 26.47959 50.66808 9761 ft 299 kts 95°
2026-04-28 07:47 26.47559 50.68865 9407 ft 300 kts 110°
2026-04-28 07:47 26.46597 50.70998 9036 ft 300 kts 119°
2026-04-28 07:47 26.45445 50.72892 8654 ft 301 kts 135°
2026-04-28 07:47 26.43705 50.74071 8293 ft 301 kts 164°
2026-04-28 07:48 26.41735 50.74200 7952 ft 299 kts 192°
2026-04-28 07:48 26.40066 50.73457 7637 ft 295 kts 216°
2026-04-28 07:48 26.38685 50.71738 7273 ft 290 kts 245°
2026-04-28 07:48 26.38238 50.70115 7023 ft 284 kts 267°
2026-04-28 07:49 26.38543 50.67712 7021 ft 262 kts 296°
2026-04-28 07:49 26.39331 50.66175 7045 ft 246 kts 305°
2026-04-28 07:49 26.40402 50.64416 6981 ft 246 kts 306°
2026-04-28 07:49 26.41328 50.62893 6684 ft 246 kts 306°
2026-04-28 07:50 26.42103 50.61589 6443 ft 244 kts 305°
2026-04-28 07:50 26.42993 50.60067 6168 ft 243 kts 305°
2026-04-28 07:50 26.44004 50.58317 5852 ft 241 kts 304°
2026-04-28 07:50 26.44866 50.56817 5749 ft 238 kts 304°
2026-04-28 07:51 26.45648 50.55455 5717 ft 239 kts 304°
2026-04-28 07:51 26.46414 50.54120 5676 ft 239 kts 304°
2026-04-28 07:51 26.47397 50.52387 5467 ft 235 kts 304°
2026-04-28 07:51 26.48241 50.50861 5169 ft 235 kts 303°
2026-04-28 07:52 26.49012 50.49457 4942 ft 233 kts 303°
2026-04-28 07:52 26.49877 50.47881 4685 ft 231 kts 303°
2026-04-28 07:52 26.50738 50.46309 4424 ft 228 kts 303°
2026-04-28 07:52 26.51550 50.44826 4174 ft 224 kts 303°
2026-04-28 07:53 26.52297 50.43457 3939 ft 220 kts 303°
2026-04-28 07:53 26.53081 50.42020 3690 ft 217 kts 303°
2026-04-28 07:53 26.53844 50.40613 3442 ft 215 kts 301°
2026-04-28 07:53 26.54226 50.39053 3168 ft 219 kts 264°
2026-04-28 07:54 26.53656 50.37592 3143 ft 225 kts 230°
2026-04-28 07:54 26.52337 50.36598 3122 ft 229 kts 197°
2026-04-28 07:54 26.50814 50.36530 3124 ft 227 kts 164°
2026-04-28 07:54 26.49757 50.37101 3208 ft 210 kts 144°
2026-04-28 07:55 26.48428 50.38260 3136 ft 190 kts 139°
2026-04-28 07:55 26.47613 50.39014 3102 ft 174 kts 139°
2026-04-28 07:55 26.46630 50.39909 3101 ft 168 kts 139°
2026-04-28 07:55 26.45684 50.40749 3111 ft 168 kts 140°
2026-04-28 07:56 26.44758 50.41517 3114 ft 168 kts 146°
2026-04-28 07:56 26.43753 50.42166 3119 ft 169 kts 152°
2026-04-28 07:56 26.42693 50.42699 3121 ft 169 kts 156°
2026-04-28 07:56 26.41605 50.43193 3120 ft 169 kts 158°
2026-04-28 07:57 26.40511 50.43679 3120 ft 169 kts 158°
2026-04-28 07:57 26.39472 50.44139 3120 ft 169 kts 158°
2026-04-28 07:57 26.38590 50.44587 3114 ft 168 kts 147°
2026-04-28 07:57 26.37563 50.45541 3118 ft 167 kts 130°
2026-04-28 07:58 26.36917 50.46417 3118 ft 166 kts 124°
2026-04-28 07:58 26.36200 50.47583 2974 ft 165 kts 121°
2026-04-28 07:58 26.35585 50.48650 2800 ft 165 kts 120°
2026-04-28 07:58 26.34977 50.49715 2575 ft 164 kts 120°
2026-04-28 07:59 26.34367 50.50773 2354 ft 164 kts 120°
2026-04-28 07:59 26.33755 50.51830 2135 ft 161 kts 120°
2026-04-28 07:59 26.33193 50.52797 1916 ft 154 kts 120°
2026-04-28 07:59 26.32657 50.53721 1728 ft 153 kts 120°
2026-04-28 08:00 26.32188 50.54529 1562 ft 153 kts 120°
2026-04-28 08:00 26.31799 50.55200 1425 ft 153 kts 120°
2026-04-28 08:00 26.31444 50.55814 1300 ft 152 kts 120°
2026-04-28 08:00 26.30854 50.56832 1092 ft 152 kts 120°
2026-04-28 08:01 26.30489 50.57461 964 ft 152 kts 120°
2026-04-28 08:01 26.30331 50.57731 904 ft 152 kts 120°
2026-04-28 08:01 26.29787 50.58636 694 ft 152 kts 121°
2026-04-28 08:01 26.29192 50.59622 526 ft 151 kts 119°
2026-04-28 08:02 26.28665 50.60564 369 ft 151 kts 119°
2026-04-28 08:02 26.28282 50.61256 158 ft 151 kts 118°
2026-04-28 08:02 26.27816 50.62073 41 ft 149 kts 118°
2026-04-28 08:02 26.27294 50.62950 207 ft 148 kts 120°
2026-04-28 08:03 26.26909 50.63604 565 ft 157 kts 120°
2026-04-28 08:03 26.26372 50.64559 1246 ft 163 kts 119°
2026-04-28 08:03 26.25815 50.65582 1696 ft 184 kts 118°
2026-04-28 08:03 26.25069 50.66971 2169 ft 194 kts 118°
2026-04-28 08:04 26.24481 50.68065 2533 ft 194 kts 118°
2026-04-28 08:04 26.23889 50.69525 2964 ft 192 kts 97°
2026-04-28 08:04 26.24007 50.70954 3095 ft 189 kts 65°
2026-04-28 08:04 26.24608 50.71978 3010 ft 185 kts 41°
2026-04-28 08:05 26.25696 50.72912 3081 ft 206 kts 33°
2026-04-28 08:05 26.26775 50.73749 3102 ft 211 kts 33°
2026-04-28 08:05 26.28022 50.74678 3109 ft 211 kts 26°
2026-04-28 08:05 26.29318 50.74993 3109 ft 220 kts 351°
2026-04-28 08:06 26.30729 50.74395 3129 ft 225 kts 333°
2026-04-28 08:06 26.32229 50.73512 3123 ft 226 kts 333°
2026-04-28 08:06 26.33602 50.72737 3121 ft 225 kts 334°
2026-04-28 08:06 26.34992 50.71991 3120 ft 225 kts 334°
2026-04-28 08:07 26.36311 50.71070 3119 ft 226 kts 321°
2026-04-28 08:07 26.37385 50.69821 3120 ft 228 kts 308°
2026-04-28 08:07 26.38277 50.68348 3123 ft 231 kts 304°
2026-04-28 08:07 26.39118 50.66861 3121 ft 232 kts 304°
2026-04-28 08:08 26.39973 50.65342 3120 ft 232 kts 304°
2026-04-28 08:08 26.40777 50.63923 3120 ft 232 kts 304°
2026-04-28 08:08 26.41655 50.62381 3119 ft 231 kts 304°
2026-04-28 08:08 26.42489 50.60922 3120 ft 232 kts 304°
2026-04-28 08:09 26.43372 50.59381 3120 ft 232 kts 304°
2026-04-28 08:09 26.44122 50.58071 3120 ft 232 kts 304°
2026-04-28 08:09 26.44890 50.56732 3112 ft 224 kts 304°
2026-04-28 08:09 26.45834 50.55083 3114 ft 216 kts 304°
2026-04-28 08:10 26.46597 50.53754 3185 ft 215 kts 304°
2026-04-28 08:10 26.47404 50.52313 3214 ft 217 kts 302°
2026-04-28 08:10 26.47813 50.50711 3135 ft 220 kts 272°
2026-04-28 08:10 26.47529 50.49424 3126 ft 225 kts 246°
2026-04-28 08:11 26.46591 50.47965 3122 ft 228 kts 225°
2026-04-28 08:11 26.45382 50.46949 3130 ft 229 kts 218°
2026-04-28 08:11 26.44064 50.45950 3124 ft 229 kts 214°
2026-04-28 08:11 26.42749 50.45042 3109 ft 217 kts 213°
2026-04-28 08:12 26.41736 50.44357 3098 ft 201 kts 213°
2026-04-28 08:12 26.40583 50.43584 3085 ft 182 kts 213°
2026-04-28 08:12 26.39490 50.42895 3071 ft 168 kts 200°
2026-04-28 08:12 26.38507 50.42862 3072 ft 168 kts 159°
2026-04-28 08:13 26.37738 50.43506 3093 ft 165 kts 118°
2026-04-28 08:13 26.37224 50.44885 3126 ft 163 kts 106°
2026-04-28 08:13 26.36852 50.45967 3136 ft 163 kts 111°
2026-04-28 08:13 26.36368 50.47084 3045 ft 165 kts 115°
2026-04-28 08:14 26.35793 50.48233 2852 ft 164 kts 117°
2026-04-28 08:14 26.35259 50.49223 2651 ft 164 kts 119°
2026-04-28 08:14 26.34673 50.50261 2441 ft 163 kts 120°
2026-04-28 08:14 26.34055 50.51331 2222 ft 163 kts 120°
2026-04-28 08:15 26.33527 50.52237 2038 ft 162 kts 120°
2026-04-28 08:15 26.32899 50.53310 1803 ft 154 kts 121°
2026-04-28 08:15 26.32317 50.54308 1601 ft 153 kts 120°
2026-04-28 08:15 26.31733 50.55315 1397 ft 153 kts 120°
2026-04-28 08:16 26.31170 50.56289 1200 ft 152 kts 120°
2026-04-28 08:16 26.30699 50.57100 1043 ft 152 kts 119°
2026-04-28 08:16 26.30143 50.58062 845 ft 152 kts 121°
2026-04-28 08:16 26.29595 50.58937 595 ft 151 kts 122°
2026-04-28 08:17 26.29076 50.59835 434 ft 153 kts 118°
2026-04-28 08:17 26.28657 50.60606 247 ft 149 kts 118°
2026-04-28 08:17 26.28239 50.61347 171 ft 150 kts 119°
2026-04-28 08:17 26.27755 50.62183 56 ft 142 kts 119°
2026-04-28 08:18 26.27377 50.62846 33 ft 117 kts 121°
2026-04-28 08:18 26.27090 50.63349 26 ft 52 kts 123°
2026-04-28 08:18 26.26988 50.63493 28 ft 10 kts 173°
2026-04-28 08:18 26.26932 50.63467 26 ft 10 kts 212°
2026-04-28 08:19 26.26860 50.63415 25 ft 12 kts 213°
2026-04-28 08:19 26.26808 50.63379 25 ft 12 kts 213°
2026-04-28 08:19 26.26768 50.63353 25 ft 5 kts 192°
2026-04-28 08:19 26.26735 50.63374 25 ft 6 kts 124°
2026-04-28 08:20 26.26716 50.63408 25 ft 7 kts 122°
2026-04-28 08:20 26.26683 50.63466 25 ft 8 kts 122°
2026-04-28 08:20 26.26671 50.63489 25 ft 2 kts 122°
2026-04-28 08:20 26.26655 50.63513 25 ft 4 kts 143°
2026-04-28 08:21 26.26622 50.63509 24 ft 6 kts 208°
2026-04-28 08:21 26.26585 50.63483 23 ft 0 kts 212°